Coston Home Weather Station

Constructed by Sean Coston

Oct 19 2018 10:43:35

Current temperature, daily max/min Current temperature, daily max/min






Coston Home Weather Station

Constructed by Sean Coston

Oct 19 2018 10:43:35

Average of Temperature Sensors: 53.51 degr F ----- Oct 19 2018 10:43:03

Humidity: 99.9 % ----- Oct 19 2018 10:43:03

Heat Index: 53.75 degr F ----- Oct 19 2018 10:43:03

Barometric Pressure: 29.9938 in Hg ----- Oct 19 2018 10:43:03

Solar Global Horizontal Irradiance: 220.33 W/m^2 ----- Oct 19 2018 10:43:03

UV Index: 4.69 out of 16 ----- Oct 19 2018 10:43:03

Current Wind Speed: 6.38 MPH ----- Oct 19 2018 10:43:34

Current Wind Direction: 187.03 degrees ----- Oct 19 2018 10:43:34

BMP180 Temperature: 53.31 degr F ----- Oct 19 2018 10:43:03

DHT22 Temperature: 53.96 degr F ----- Oct 19 2018 10:43:03

Dallas 18-B20 Temperature: 53.26 degr F ----- Oct 19 2018 10:43:03

Last Measured Rain - inches: 0.032 inches ----- Oct 15 2018 16:10:36

Wind Speed - 2 min avg: 5.97 MPH ----- Oct 19 2018 10:43:33

Wind Direction - 2 min avg: 197.29 degrees ----- Oct 19 2018 10:43:33

Gust Speed - last 1 min: 8.95 MPH ----- Oct 19 2018 10:43:33

Gust Direction - last 1 min: 184.92 degrees ----- Oct 19 2018 10:43:33

Voltage-In: 12.92 volts ----- Oct 19 2018 10:00:03

Max Temp today: 54.03 degr F seen at Oct 19 2018 10:41:00

Low Temp today: 40.71 degr F seen at Oct 19 2018 08:01:01

Max Temp yesterday: 52.72 degr F seen at Oct 18 2018 23:59:59

Low Temp yesterday: 42.18 degr F seen at Oct 18 2018 23:59:59

Max Heat Index today: 54.54 degr F seen at Oct 19 2018 10:42:01

Low Heat Index today: 39.5 degr F seen at Oct 19 2018 07:57:59

Max Heat Index yesterday: 52.56 degr F seen at Oct 18 2018 23:59:59

Low Heat Index yesterday: 41.08 degr F seen at Oct 18 2018 23:59:59

Last 24 hr average atm Pressure: 29.95 in Hg

Last Hour average atm Pressure: 29.99 in Hg

Rain - last 5 minutes: 0 inches

Rain - last 15 minutes: 0 inches

Rain - last 1 hour: 0 inches

Rain - today: 0 inches

Rain - yesterday: 0 inches